Regional Weather Roundup
Issued by NWS Goodland, KS

Home | Current Version | Previous Version | Graphics & Text | Print | Product List | Glossary On
Versions: 1 2 3 4 5 6 7 8 9 10 11 12 13 14 15 16 17 18 19 20 21 22 23 24 25 26 27 28 29 30 31 32 33 34 35 36 37 38 39 40 41 42 43 44 45 46 47 48 49 50
000
ASUS43 KGLD 220708
RWRGLD

GOODLAND FORECAST AREA HOURLY WEATHER ROUNDUP
NATIONAL WEATHER SERVICE GOODLAND KS
100 AM MDT TUE AUG 22 2017

...OFFICIAL OBSERVATIONS...

CITY           SKY/WX    TMP DP  RH WIND       PRES   REMARKS
GOODLAND KS    MOCLDY    68  64  87 N12       30.17R
HILL CITY KS   MOCLDY    72  66  81 NE9       30.07R
IMPERIAL NEB   CLEAR     63  60  90 N9        30.19R
MCCOOK NEB     PTCLDY    67  65  93 NE7       30.12R
AKRON CO       CLEAR     59  56  89 E7        30.26R
BURLINGTON CO  CLOUDY    69  64  84 NE14      30.21R
LIMON CO       CLEAR     59  58  96 E6        30.30R
$$

...UNOFFICIAL OBSERVATIONS...

CITY           SKY/WX    TMP DP  RH WIND       PRES   REMARKS
LENORA KS        N/A     69  32  25 CALM        N/A
NORTON KS      CLEAR     68  61  77 N3        30.08
TRENTON NEB      N/A     66  32  28 N5          N/A
KIT CARSON CO    N/A     68  63  83 MISG        N/A
YUMA CO        FAIR      59  48  67 N6        30.24R
$$




USA.gov is the U.S. government's official web portal to all federal, state and local government web resources and services.